Flag for Norway Weather past 2 weeks in Namsos, Norway

Now
32 °F

Passing clouds.


Feels Like: 24 °F
Forecast: 38 / 47 °F
Wind: 9 mph from Northeast

Location: Namsos Lufthavn

Current Time: Apr 25, 2015 at 7:22:57 AM

Latest Report: Apr 25, 2015 at 6:50 AM


Visibility: N/A

Pressure: 29.56 "Hg

Humidity: 93%

Dew point: 30 °F

Location of NamsosLocation

Historic Weather in Namsos — Graph

°F

Namsos temperature yesterday

Maximum temperature yesterday: 37 °F (at 8:20 AM)
Minimum temperature yesterday: 34 °F (at 6:50 AM)
Average temperature yesterday: 36 °F

Past Weeks' High & Low Weather Summary

 TemperatureHumidityPressure
High46 °F (Apr 10, 11:20 AM)100% (Apr 14, 7:20 PM)30.39 "Hg (Apr 14, 7:20 PM)
Low28 °F (Apr 14, 6:50 AM)49% (Apr 13, 2:50 PM)29.39 "Hg (Apr 15, 4:20 PM)
Average40 °F82%29.83 "Hg
* Reported Apr 10 5:50 AM — Apr 25 5:50 AM, Namsos, Weather by CustomWeather, © 2015

Note: Actual official high and low records may vary slightly from our data, if they occured in-between our weather recording intervals... More about our weather records

Advertising

Namsos weather history for previous 24 hours

 ConditionsComfort  
Time TempWeatherWind HumidityBarometerVisibility
5:50 AM
Sat, Apr 25
32 °FSleet. Passing clouds.9 mph93%29.59 "HgN/A
9:50 PM
Fri, Apr 24
34 °FPartly sunny.8 mph100%29.62 "HgN/A
9:20 PM36 °FPartly sunny.No wind93%29.62 "HgN/A
8:20 PM36 °FSprinkles. Broken clouds.5 mph93%29.62 "HgN/A
7:50 PM36 °FBroken clouds.6 mph93%29.62 "HgN/A
7:20 PM36 °FSprinkles. Partly sunny.6 mph93%29.62 "HgN/A
6:50 PM36 °FScattered showers. Broken clouds.10 mph93%29.62 "HgN/A
6:20 PM36 °FSprinkles. Broken clouds.14 mph93%29.59 "HgN/A
5:50 PM37 °FPartly sunny.10 mph87%29.59 "HgN/A
5:20 PM37 °FBroken clouds.8 mph87%29.59 "HgN/A
4:50 PM36 °FSprinkles. Broken clouds.15 mph93%29.59 "HgN/A
4:20 PM37 °FSprinkles. Broken clouds.10 mph93%29.56 "HgN/A
3:50 PM37 °FSprinkles. Broken clouds.7 mph87%29.56 "HgN/A
3:20 PM36 °FSprinkles. Broken clouds.5 mph93%29.56 "HgN/A
2:50 PM37 °FSprinkles. Broken clouds.6 mph87%29.56 "HgN/A
2:20 PM37 °FSprinkles. Broken clouds.6 mph93%29.53 "HgN/A
1:50 PM37 °FScattered showers. Broken clouds.6 mph93%29.53 "HgN/A
1:20 PM37 °FScattered showers. Broken clouds.5 mph93%29.53 "HgN/A
12:50 PM37 °FScattered showers. Broken clouds.7 mph93%29.53 "HgN/A
11:50 AM34 °FSnow flurries. Broken clouds.10 mph93%29.53 "Hg4 mi
10:50 AM37 °FSprinkles. Broken clouds.10 mph87%29.50 "HgN/A
10:20 AM37 °FSprinkles. Broken clouds.10 mph87%29.50 "HgN/A
9:50 AM37 °FScattered showers. Broken clouds.10 mph81%29.47 "HgN/A
9:20 AM37 °FScattered showers. Broken clouds.10 mph81%29.47 "HgN/A
8:50 AM37 °FScattered showers. Broken clouds.10 mph81%29.47 "HgN/A
8:20 AM37 °FScattered showers. Broken clouds.7 mph87%29.47 "HgN/A
7:50 AM36 °FScattered showers. Broken clouds.6 mph93%29.47 "HgN/A
7:20 AM36 °FScattered showers. Broken clouds.2 mph87%29.45 "HgN/A
Weather by CustomWeather, © 2015

See weather overviewHow to use our weather pages